TimeEST,TemperatureF,Dew PointF,Humidity,Sea Level PressureIn,VisibilityMPH,Wind Direction,Wind SpeedMPH,Gust SpeedMPH,PrecipitationIn,Events,Conditions,WindDirDegrees,DateUTC
12:53 AM,28.0,6.1,39,30.08,10.0,NNW,9.2,-,N/A,,Mostly Cloudy,330,2013-01-18 05:53:00
1:53 AM,28.0,5.0,38,30.07,10.0,North,5.8,-,N/A,,Overcast,360,2013-01-18 06:53:00
2:53 AM,27.0,6.1,41,30.09,10.0,North,11.5,-,N/A,,Overcast,350,2013-01-18 07:53:00
3:53 AM,24.1,-2.9,31,30.10,10.0,NNW,13.8,21.9,N/A,,Overcast,340,2013-01-18 08:53:00
4:53 AM,21.9,-0.9,37,30.13,10.0,NNW,11.5,23.0,N/A,,Overcast,340,2013-01-18 09:53:00
5:53 AM,19.0,-0.9,42,30.17,10.0,NNW,13.8,21.9,N/A,,Clear,330,2013-01-18 10:53:00
6:53 AM,17.1,-5.1,37,30.21,10.0,NNW,11.5,19.6,N/A,,Scattered Clouds,340,2013-01-18 11:53:00
7:53 AM,16.0,-4.0,41,30.27,10.0,NNW,11.5,20.7,N/A,,Clear,330,2013-01-18 12:53:00
8:53 AM,17.1,-4.0,39,30.31,10.0,NW,12.7,21.9,N/A,,Clear,320,2013-01-18 13:53:00
9:53 AM,18.0,-6.0,35,30.33,10.0,NW,11.5,-,N/A,,Clear,320,2013-01-18 14:53:00
10:53 AM,19.0,-5.1,34,30.34,10.0,NNW,21.9,31.1,N/A,,Clear,340,2013-01-18 15:53:00
11:53 AM,21.0,-5.1,32,30.33,10.0,NW,17.3,24.2,N/A,,Clear,310,2013-01-18 16:53:00
12:53 PM,21.9,-2.9,34,30.32,10.0,WNW,15.0,23.0,N/A,,Clear,290,2013-01-18 17:53:00
1:53 PM,23.0,-2.9,32,30.34,10.0,WNW,10.4,-,N/A,,Clear,290,2013-01-18 18:53:00
2:53 PM,24.1,-4.0,29,30.35,10.0,WNW,9.2,17.3,N/A,,Clear,290,2013-01-18 19:53:00
3:53 PM,24.1,-5.1,28,30.37,10.0,WNW,10.4,-,N/A,,Clear,290,2013-01-18 20:53:00
4:53 PM,21.9,-5.1,30,30.38,10.0,WNW,4.6,-,N/A,,Clear,300,2013-01-18 21:53:00
5:53 PM,21.0,-5.1,32,30.42,10.0,West,3.5,-,N/A,,Clear,280,2013-01-18 22:53:00
6:53 PM,19.9,-2.9,37,30.43,10.0,Calm,Calm,-,N/A,,Clear,0,2013-01-18 23:53:00
7:53 PM,19.0,1.0,46,30.43,10.0,SSW,3.5,-,N/A,,Clear,210,2013-01-19 00:53:00
8:53 PM,19.0,-0.0,43,30.43,10.0,SW,3.5,-,N/A,,Clear,230,2013-01-19 01:53:00
9:53 PM,19.9,1.0,44,30.43,10.0,SW,5.8,-,N/A,,Clear,220,2013-01-19 02:53:00
10:53 PM,19.9,1.9,46,30.41,10.0,SSW,5.8,-,N/A,,Scattered Clouds,210,2013-01-19 03:53:00
11:53 PM,23.0,3.9,44,30.38,10.0,South,5.8,-,N/A,,Overcast,180,2013-01-19 04:53:00